Regional Weather Roundup
Issued by NWS

Home | Current Version | Previous Version | Graphics & Text | Print | Product List | Glossary On
Versions: 1 2 3 4 5 6 7 8 9 10 11 12 13 14 15 16 17 18 19 20 21 22 23 24 25 26 27 28 29 30 31 32 33 34 35 36 37 38 39 40 41 42 43 44 45 46 47 48 49 50
000
ASUS43 KOAX 240202
RWRNE

WEATHER ROUNDUP FOR NEBRASKA
NATIONAL WEATHER SERVICE OMAHA NE
800 PM CST THU NOV 23 2017

NOTES: SATELLITE DATA IS BEING USED TO AUGMENT CLOUD COVER ABOVE
       12000 FEET.
       "FAIR" INDICATES FEW OR NO CLOUDS BELOW 12,000 FEET WITH NO
       SIGNIFICANT WEATHER AND/OR OBSTRUCTIONS TO VISIBILITY.


NEZ001>004-019>022-054>056-240300-
NEBRASKA PANHANDLE

CITY           SKY/WX    TMP DP  RH WIND       PRES   REMARKS
SCOTTSBLUFF    CLOUDY    52  35  52 W8        29.86F
ALLIANCE       CLEAR     45  36  70 W8        29.83F
CHADRON        CLEAR     51  35  54 W10       29.77F
GORDON         FAIR      53  35  51 SW8       29.76F
KIMBALL        CLOUDY    50  30  46 W7        29.93S
SIDNEY         CLOUDY    41  28  60 W8        29.90F
$$

NEZ057>060-069>072-079>082-240300-
SOUTHWEST NEBRASKA

CITY           SKY/WX    TMP DP  RH WIND       PRES   REMARKS
NORTH PLATTE   CLEAR     46  37  71 CALM      29.81F
IMPERIAL       CLEAR     52  33  48 SW10      29.86F
LEXINGTON      PTCLDY    57  41  55 S7        29.82F
MCCOOK         CLOUDY    54  39  57 SW7       29.84F
OGALLALA       CLEAR     46  35  65 W3        29.84F
$$

NEZ005>010-023>029-035>040-094-240300-
NORTH CENTRAL NEBRASKA

CITY           SKY/WX    TMP DP  RH WIND       PRES   REMARKS
VALENTINE      PTCLDY    53  38  56 S13       29.71F
AINSWORTH      CLOUDY    56  40  55 SW10      29.73F
BROKEN BOW     CLOUDY    52  41  66 CALM      29.78F
O`NEILL        CLOUDY    58  44  58 SW7       29.74F
ORD            PTCLDY    55  41  59 CALM      29.76F
THEDFORD       CLOUDY    54  40  57 SW9       29.78F
$$

NEZ041-046>049-061>064-073>077-083>087-240300-
SOUTH CENTRAL NEBRASKA

CITY           SKY/WX    TMP DP  RH WIND       PRES   REMARKS
GRAND ISLAND   CLOUDY    59  42  53 S12       29.80F
AURORA         CLOUDY    56  40  53 SW13      29.80F
HASTINGS       MOCLDY    57  39  51 S8        29.82F
HEBRON         MOCLDY    57  40  52 S10       29.83F
HOLDREGE       PTCLDY    56  42  58 SW8       29.83F
KEARNEY        PTCLDY    55  40  56 SW10      29.82F
YORK           CLOUDY    55  39  54 SW12      29.81F
$$

NEZ011>018-030>034-042>045-240300-
NORTHEAST NEBRASKA

CITY           SKY/WX    TMP DP  RH WIND       PRES   REMARKS
NORFOLK        CLOUDY    58  41  53 S15       29.74F
ALBION         CLOUDY    58  42  54 S5        29.78S
BLAIR          PTCLDY    55  40  56 S12       29.80F
COLUMBUS       MOCLDY    59  41  51 S10       29.79F
FREMONT        PTCLDY    60  40  47 S8        29.79F
TEKAMAH        PTCLDY    44  32  62 SE7       29.79F
WAYNE          CLOUDY    55  38  52 S9        29.74F
$$

NEZ050>053-065>068-078-088>093-240300-
SOUTHEAST NEBRASKA

CITY           SKY/WX    TMP DP  RH WIND       PRES   REMARKS
LINCOLN        CLOUDY    53  41  63 S9        29.82F
OMAHA EPPLEY   MOCLDY    54  38  54 S10       29.81F
BEATRICE       CLOUDY    58  40  50 S9        29.85F
FALLS CITY     PTCLDY    54  38  54 S9        29.87F
NEBRASKA CITY  CLOUDY    54  40  59 S12       29.84F
PLATTSMOUTH    CLOUDY    55  39  56 S10       29.82F
$$

NEZ044-045-051>053-067-240300-
OMAHA AREA

CITY           SKY/WX    TMP DP  RH WIND       PRES   REMARKS
OMAHA EPPLEY   MOCLDY    54  38  54 S10       29.81F
BLAIR          PTCLDY    55  40  56 S12       29.80F
FREMONT        PTCLDY    60  40  47 S8        29.79F
MILLARD        CLOUDY    52  39  61 SE5       29.81F
OFFUTT AFB     CLOUDY    47  36  67 E6        29.82F
PLATTSMOUTH    CLOUDY    55  39  56 S10       29.82F
WAHOO          FAIR      51  39  63 S8        29.80F
$$




USA.gov is the U.S. government's official web portal to all federal, state and local government web resources and services.